Location: De Greiden
(52.9496°N, 5.9137°E)
Time: 22:48:21
(UTC+00:00)

Cosmos 1092 Rocket - Pass Details

Date: 24 January 2021
Orbit: 954 x 995 km, 83.0° (Epoch: 01 March)

Event Time Altitude Azimuth Distance (km) Brightness Sun altitude
Rises 18:33:52 0° 195° (SSW) 3,647 7.2 -21.8°
Reaches altitude 10° 18:36:23 10° 197° (SSW) 2,699 6.5 -22.2°
Maximum altitude 18:42:33 73° 282° (WNW) 1,007 4.1 -23.1°
Drops below altitude 10° 18:48:43 10° 8° (N) 2,699 6.2 -24.1°
Sets 18:51:15 0° 10° (N) 3,647 6.9 -24.4°
